Home > Weather > Sarnen > Past weeks

Flag for Switzerland Weather for the Past 2 Weeks in Sarnen, Obwalden, Switzerland

Now
38 °F

Chilly.


Feels Like: 33 °F
Forecast: 42 / 56 °F
Wind: 7 mph from West

Location: Interlaken

Current Time: May 1, 2016 at 4:48:16 AM

Latest Report: May 1, 2016 at 3:00 AM


Visibility: N/A

Pressure: 30.03 "Hg

Humidity: 100%

Dew Point: 38 °F

Location of SarnenLocation

Historic Weather in Sarnen — Graph

°F

Sarnen Temperature Yesterday

Maximum temperature yesterday: 60 °F (at 2:00 PM)
Minimum temperature yesterday: 38 °F (at 7:00 AM)
Average temperature yesterday: 47 °F

High & Low Weather Summary for the Past Weeks

 TemperatureHumidityPressure
High71 °F (Apr 21, 5:00 PM)100% (Apr 16, 2:00 AM)30.35 "Hg (Apr 16, 2:00 AM)
Low31 °F (Apr 28, 2:00 AM)35% (Apr 21, 6:00 PM)29.62 "Hg (Apr 16, 8:00 PM)
Average48 °F79%29.99 "Hg
* Reported Apr 16 2:00 AM — May 1 2:00 AM, Sarnen, Weather by CustomWeather, © 2016

Note: Actual official high and low records may vary slightly from our data, if they occured in-between our weather recording intervals... More about our weather records

Advertising

Sarnen Weather History for the Previous 24 Hours

Scroll right to see more
 ConditionsComfort  
Time TempWeatherWind HumidityBarometerVisibility
2:00 AM
Sun, May 1
40 °FChilly.5 mph100%30.03 "HgN/A
1:00 AM41 °FQuite cool.2 mph100%30.03 "HgN/A
12:00 AM41 °FQuite cool.1 mph100%30.03 "HgN/A
10:00 PM
Sat, Apr 30
42 °FQuite cool.6 mph100%30.03 "HgN/A
9:00 PM43 °FQuite cool.3 mph100%30.02 "HgN/A
8:00 PM44 °FQuite cool.6 mph100%30.01 "HgN/A
7:40 PM44 °FQuite cool.7 mph100%30.01 "HgN/A
7:00 PM45 °FQuite cool.10 mph100%30.00 "HgN/A
6:00 PM47 °FCool.13 mph95%29.97 "HgN/A
5:00 PM51 °FCool.22 mph65%29.91 "HgN/A
4:00 PM58 °FRefreshingly cool.17 mph50%29.85 "HgN/A
3:00 PM59 °FRefreshingly cool.13 mph49%29.86 "HgN/A
2:00 PM60 °FRefreshingly cool.12 mph49%29.86 "HgN/A
1:00 PM59 °FRefreshingly cool.12 mph49%29.88 "HgN/A
9:00 AM46 °FCool.1 mph99%30.03 "HgN/A
8:00 AM40 °FChilly.2 mph100%30.07 "HgN/A
7:00 AM38 °FChilly.1 mph100%30.07 "HgN/A
Weather by CustomWeather, © 2016

See weather overviewHow to use our weather pages